Wind_Speed
1 1 7 9 7 0 1 3 5 2 2 2 9 12 21 12 8 10 9 8 9 8 8 8 4 4 8 12 14 15 16 17 18 22 23 17 18 26 18 17 18 23 24 22
2 8 5 5 4 4 3 3 5 4 3 2 6 15 22 9 5 4 6 8 8 5 5 5 4 6 9 11 13 15 17 17 17 18 20 20 24 21 26 24 21 17 19 19
6 1 3 3 2 3 4 4 2 4 5 1 7 8 5 3 2 2 2 1 4 8 7 4 6 8 9 10 12 14 18 20 20 19 17 23 22 24 21 17 17 18 18 19
6 3 4 2 4 6 2 2 3 0 4 3 4 6 7 3 6 4 5 4 5 6 3 4 6 8 7 10 12 15 18 22 20 16 20 20 19 19 21 20 20 22 17 14
5 2 3 3 4 4 5 1 3 3 3 4 1 2 8 5 6 4 6 7 7 5 4 6 7 5 8 12 15 17 20 20 18 17 18 19 18 19 20 20 20 20 17 16
7 3 1 3 2 3 5 3 4 4 2 2 2 3 6 3 5 3 1 4 6 5 5 5 5 7 11 14 17 19 20 18 19 17 20 19 18 19 18 17 17 18 15 16
2 2 2 5 1 3 4 3 3 4 2 5 2 1 10 6 5 5 5 6 4 5 5 4 5 8 12 15 16 18 17 21 20 20 19 18 18 18 17 17 16 16 14 14
1 4 3 2 2 3 4 4 4 6 2 4 1 6 6 6 4 5 4 4 6 6 5 4 4 7 11 12 17 18 19 20 21 20 19 18 17 16 16 16 16 16 15 14
2 4 2 3 1 2 1 3 2 6 1 3 2 7 9 3 4 4 7 5 8 6 5 4 6 9 12 14 16 17 18 19 19 18 17 17 14 15 15 14 15 16 13 11
1 5 2 1 1 3 2 2 2 2 0 4 4 5 5 5 4 4 6 7 7 4 4 3 5 10 12 14 15 15 15 16 16 15 14 13 14 12 11 10 10 10 9 8
3 2 1 1 3 3 2 2 2 3 3 4 2 7 7 7 6 6 8 6 6 5 3 3 6 10 12 12 13 14 14 14 14 13 13 12 11 9 7 5 6 6 6 6
2 3 4 4 3 2 2 4 3 4 4 1 3 7 3 5 4 3 10 8 4 3 3 4 6 10 11 11 11 12 12 12 11 11 10 9 9 7 6 5 5 5 4 3
2 3 3 2 2 1 3 3 3 4 3 5 4 6 1 3 6 7 9 6 4 3 3 4 6 9 10 11 11 10 9 9 9 8 7 8 8 8 9 9 8 6 4 3
1 3 5 2 1 2 1 2 3 3 3 4 7 10 15 9 7 9 6 5 5 5 5 4 6 7 10 10 9 8 8 7 6 6 7 9 9 9 10 10 11 10 5 5
2 4 4 8 10 5 6 8 8 9 6 7 4 7 13 12 9 7 5 6 6 6 5 5 4 4 9 7 6 5 5 5 4 5 8 9 9 9 11 13 14 16 14 14
2 3 2 5 3 2 6 8 11 14 3 10 10 23 14 5 4 5 7 5 6 6 7 6 5 6 8 6 5 5 5 6 4 5 7 7 9 10 11 13 15 17 17 18
2 2 3 4 1 6 6 7 7 4 2 8 6 11 3 5 6 5 6 5 7 7 6 7 7 8 7 6 5 4 3 4 4 4 4 6 9 12 13 14 16 17 18 20
1 0 1 4 6 1 4 0 2 4 6 11 9 8 7 7 7 10 9 6 7 7 6 7 9 10 9 6 4 3 3 4 2 2 4 5 8 11 13 15 15 15 16 18
5 1 2 2 2 7 3 3 5 5 5 7 8 12 6 5 6 8 3 7 6 7 7 14 16 12 10 8 7 6 5 4 4 3 3 5 7 7 8 9 9 11 12 13
2 1 1 1 2 2 5 4 3 3 4 4 5 6 3 2 4 4 4 3 6 9 11 16 16 14 13 12 9 7 8 7 8 6 6 6 7 7 8 7 7 7 7 9
1 1 3 3 3 7 4 4 5 5 6 3 5 5 4 3 6 3 4 3 5 10 16 16 16 19 19 13 12 12 10 12 8 8 7 7 8 9 9 8 7 7 7 7
5 5 3 2 2 5 5 1 3 6 5 3 4 4 6 8 7 5 5 5 6 8 13 17 18 21 20 17 15 15 16 12 11 11 11 10 9 8 8 7 8 9 8 9
2 4 3 6 4 4 6 6 6 4 8 8 4 5 6 8 6 6 7 8 9 13 17 21 22 22 22 22 21 21 22 15 15 16 15 14 13 12 10 10 11 11 11 10
3 2 2 2 3 6 7 5 4 4 6 8 8 9 6 10 9 9 7 7 8 14 17 23 23 21 24 28 27 28 22 18 19 20 19 18 17 16 14 14 13 14 14 14
3 3 3 5 8 12 4 9 8 16 5 9 8 7 10 9 12 9 7 8 9 16 20 25 24 23 28 32 32 30 27 22 23 23 23 22 21 19 18 18 18 18 18 16
2 4 3 4 15 5 17 18 18 14 15 15 15 16 10 8 10 7 9 10 14 16 21 23 25 25 31 35 35 33 30 29 26 27 27 27 26 24 23 22 23 22 22 20
Wind_Direction
318 64 224 218 209 36 110 217 243 242 358 299 252 271 275 280 244 259 253 238 228 211 177 175 199 275 288 297 308 317 317 317 315 314 315 316 301 308 304 294 293 294 299 306
30 239 226 227 189 213 213 253 263 277 155 248 307 289 279 279 247 226 266 246 229 158 172 187 243 275 285 293 304 310 310 311 312 308 306 301 301 297 300 302 302 297 299 308
192 215 110 169 168 187 219 206 226 238 313 172 321 289 321 287 266 253 307 294 134 176 195 241 287 295 287 292 305 308 310 313 312 307 299 304 301 298 298 301 298 291 283 315
241 271 192 206 242 165 257 112 109 276 39 266 34 282 300 315 292 235 222 166 169 183 218 277 294 296 284 305 311 311 311 312 309 300 302 302 295 293 295 300 300 300 281 299
263 176 184 188 225 159 215 109 109 99 93 32 17 67 271 6 296 273 234 210 214 220 259 292 294 286 307 316 318 316 316 311 309 305 304 303 294 292 293 295 297 300 299 290
245 317 261 224 61 104 137 83 66 56 85 352 250 135 272 219 215 293 256 222 212 239 292 302 296 306 316 318 319 320 318 311 312 310 307 302 292 292 291 291 295 295 298 298
288 195 74 21 34 42 64 56 321 339 8 224 256 6 251 263 236 222 246 230 236 283 301 284 288 312 316 319 320 322 316 315 317 315 311 307 299 292 288 288 287 291 298 293
25 302 12 72 91 310 177 171 165 219 229 278 25 237 253 217 246 243 267 274 291 276 268 270 285 302 309 315 316 319 320 315 318 317 314 311 302 292 286 287 284 283 282 288
310 270 92 66 120 261 111 217 129 103 56 35 246 281 290 256 307 308 275 260 268 293 276 279 298 301 310 312 316 320 319 316 318 317 316 310 305 297 293 287 278 276 278 278
271 287 55 77 248 105 222 160 55 11 50 301 282 279 242 307 284 307 298 291 293 290 286 300 297 306 313 314 318 321 322 318 319 319 317 311 309 304 302 293 282 282 283 288
151 213 186 205 183 165 181 267 63 113 112 169 288 273 214 214 217 249 274 291 280 282 277 268 291 310 310 318 326 328 329 330 329 330 327 323 321 320 316 312 304 304 303 304
184 237 265 238 144 176 239 201 157 122 266 93 145 272 209 224 237 231 279 296 274 247 261 266 303 305 321 327 332 332 338 339 340 338 339 343 341 346 357 13 7 355 342 328
155 225 288 210 143 171 220 193 141 115 86 205 141 261 303 292 293 267 273 294 292 280 288 315 314 313 318 323 330 338 347 350 350 351 4 16 21 26 30 37 38 25 10 10
169 246 243 258 204 111 207 221 178 134 130 188 232 288 287 298 300 318 305 286 280 281 284 290 295 300 321 327 327 342 352 2 7 21 34 42 44 52 59 67 72 73 63 54
229 257 226 262 266 225 224 222 191 203 195 205 258 227 276 287 285 284 288 288 294 285 286 267 276 305 321 321 321 331 352 7 21 46 55 61 71 75 78 82 86 91 89 84
184 277 287 275 283 191 259 221 218 226 224 275 288 286 286 299 297 286 271 264 272 263 254 256 266 278 285 286 299 323 356 6 15 48 66 80 89 90 90 93 94 97 98 94
209 281 330 268 262 283 293 226 176 193 222 187 195 233 350 301 299 266 283 220 253 253 237 236 238 239 257 270 284 303 340 340 5 35 59 85 96 98 99 103 104 103 103 104
278 104 264 288 334 341 257 257 181 173 240 229 279 270 235 250 266 270 234 213 239 228 231 231 231 236 240 241 241 276 299 327 360 79 86 94 104 108 114 112 107 109 109 106
204 229 281 295 283 295 1 251 140 172 268 199 221 270 265 282 304 293 233 196 205 204 207 216 219 222 233 238 236 252 241 217 205 178 131 124 122 113 113 107 106 106 107 109
216 169 251 7 322 262 247 289 183 122 349 209 188 271 269 337 14 268 323 252 218 219 204 210 213 222 232 225 226 236 250 241 229 202 177 167 163 151 144 133 128 123 118 115
117 207 215 219 274 287 275 283 161 60 251 221 193 231 196 198 214 245 309 242 241 211 204 207 210 219 226 220 225 237 242 241 228 223 215 202 187 178 171 171 167 160 154 148
174 162 198 139 235 289 181 119 96 236 290 240 216 232 238 243 276 261 270 247 215 207 199 206 212 224 223 221 224 235 238 233 229 223 223 222 217 217 225 221 203 190 190 186
272 194 193 204 224 227 199 235 253 195 275 290 244 239 235 268 254 270 245 217 215 213 207 206 211 224 227 225 223 230 236 232 231 232 235 237 237 235 234 228 224 213 214 221
281 158 242 357 324 263 274 247 232 247 240 275 253 266 246 260 265 260 247 228 211 208 210 208 208 218 230 227 228 233 237 232 232 234 236 238 243 242 240 238 236 238 235 232
234 149 241 264 300 311 301 342 318 314 296 300 298 256 258 254 268 250 255 228 217 213 207 209 209 215 226 227 229 232 234 232 233 235 238 239 242 245 248 247 248 248 252 256
328 348 347 296 318 290 298 312 317 340 329 318 313 313 302 248 264 263 256 237 216 211 210 208 215 220 228 229 231 232 230 228 232 235 238 238 239 241 246 251 258 254 262 261
Height
794 800 800 792 792 783 782 786 787 785 791 791 785 786 765 764 770 769 769 769 770 772 775 777 779 779 779 778 777 776 775 773 771 767 763 758 756 753 751 750 748 745 743 741
799 801 785 782 783 787 788 788 790 786 794 795 791 785 760 765 764 764 765 766 767 773 776 776 777 778 778 777 776 775 774 772 769 768 765 761 756 751 747 745 743 742 741 737
800 779 779 780 783 787 789 789 788 792 795 794 799 786 774 760 761 761 764 765 768 772 774 775 776 776 776 776 775 774 772 769 767 765 762 759 755 749 745 742 740 738 736 734
796 783 782 784 786 789 798 789 793 797 807 806 802 807 770 761 763 760 762 769 771 772 773 774 775 775 775 775 774 773 770 767 764 763 761 758 754 749 745 741 736 732 732 729
787 786 786 792 785 785 796 795 796 804 824 835 810 840 772 769 754 751 760 768 771 773 775 774 773 773 774 773 772 770 768 765 762 760 758 755 752 748 743 740 735 731 728 726
794 788 787 789 787 788 796 799 800 814 825 834 818 821 769 771 772 752 762 767 770 772 772 773 772 773 771 770 769 767 764 762 760 757 754 752 749 746 741 738 735 731 726 724
785 789 792 794 788 793 799 800 807 818 831 799 816 818 764 770 772 774 771 769 774 774 774 773 772 771 770 768 766 764 762 758 756 753 750 748 745 742 739 736 734 730 725 722
805 793 799 805 804 802 795 801 798 817 814 808 808 817 762 772 781 788 781 782 775 772 772 772 770 770 768 766 764 761 759 756 752 749 746 743 741 738 736 734 731 728 724 720
805 795 803 803 807 807 800 799 808 847 869 842 825 790 758 759 774 780 776 770 770 771 771 770 769 769 767 764 762 759 757 753 750 746 742 740 737 734 731 729 727 724 722 719
805 801 799 807 803 805 806 804 811 827 814 827 807 818 786 775 774 775 775 768 770 770 770 770 769 767 766 763 760 757 755 751 747 744 740 737 734 731 728 727 724 721 719 717
808 811 800 805 808 804 808 811 812 816 836 845 847 790 778 775 779 773 768 766 772 771 771 770 768 767 764 761 758 756 753 750 746 742 739 736 733 730 727 725 722 720 717 716
807 805 799 789 808 812 807 821 819 823 828 871 852 794 785 783 791 789 769 765 770 770 770 769 768 765 763 760 757 755 752 749 745 742 739 736 733 730 727 724 722 719 717 717
807 800 794 784 803 811 810 814 822 831 837 841 827 781 789 795 782 772 770 769 769 768 769 769 767 765 762 759 757 754 751 748 745 742 738 735 733 730 727 725 722 720 718 717
807 803 794 777 784 808 818 822 816 813 850 846 813 782 737 756 773 759 768 770 774 772 771 771 767 764 761 760 757 754 751 748 745 741 738 735 733 730 728 727 725 724 721 719
807 801 797 791 789 798 807 804 814 811 820 791 799 808 761 759 763 766 778 775 772 770 771 769 767 764 761 759 756 753 751 748 745 741 739 737 735 733 731 729 729 728 726 724
809 800 798 790 792 815 815 810 805 798 829 816 800 773 756 776 793 779 766 773 770 770 768 766 765 762 760 757 756 754 752 749 747 744 741 739 737 736 734 733 733 732 731 730
806 805 797 783 795 795 790 793 810 815 824 791 802 766 802 771 775 772 762 770 763 763 763 763 762 760 758 757 757 755 753 750 749 747 744 742 740 739 737 736 736 736 735 734
807 807 801 790 791 782 768 821 809 799 806 795 788 775 783 775 768 764 758 758 756 759 760 759 759 758 757 756 756 756 755 754 752 750 748 746 745 743 742 740 739 739 738 736
807 806 808 799 801 776 765 794 799 791 766 788 781 765 772 782 773 743 748 746 747 749 750 752 755 757 757 757 756 755 755 754 753 752 751 750 750 749 748 746 745 744 743 742
805 807 803 808 804 790 768 782 790 798 774 777 783 775 778 760 763 750 748 748 745 745 747 749 753 755 755 755 756 755 755 756 755 754 752 751 751 751 751 750 749 748 747 746
819 812 805 802 798 789 779 779 780 776 774 773 781 773 771 761 749 745 747 745 744 744 745 747 750 751 751 753 754 754 755 754 756 756 755 754 752 752 751 750 750 750 750 750
807 806 806 806 804 783 776 773 765 764 763 763 771 765 760 751 746 747 744 743 742 742 743 745 747 748 749 751 752 752 752 753 754 755 755 755 755 755 754 754 753 752 751 750
791 791 794 787 768 764 768 764 761 766 758 753 756 750 750 745 741 735 734 736 736 737 738 740 742 745 746 748 749 749 747 750 752 752 753 754 755 755 754 754 754 754 754 755
793 787 788 780 757 761 755 758 759 756 754 747 745 742 740 737 731 729 729 729 730 731 734 735 738 740 740 742 744 743 746 748 748 748 749 751 752 752 753 753 753 754 754 754
787 785 781 775 763 755 748 749 753 747 748 742 738 737 733 731 726 724 722 722 722 723 726 728 729 731 731 734 736 738 741 744 744 744 745 746 747 749 750 750 751 751 751 752
791 790 783 773 770 770 759 755 753 750 747 743 738 730 728 726 723 720 716 713 714 715 716 719 721 723 723 726 728 731 735 738 740 741 741 740 741 742 743 745 745 746 746 747